TimeEDT,TemperatureF,Dew PointF,Humidity,Sea Level PressureIn,VisibilityMPH,Wind Direction,Wind SpeedMPH,Gust SpeedMPH,PrecipitationIn,Events,Conditions,WindDirDegrees,DateUTC
12:54 AM,27.0,10.0,49,29.88,10.0,NE,4.6,-,N/A,,Scattered Clouds,40,2013-03-17 04:54:00
1:54 AM,25.0,10.0,53,29.90,10.0,Calm,Calm,-,N/A,,Clear,0,2013-03-17 05:54:00
2:54 AM,24.1,10.0,55,29.89,10.0,WNW,3.5,-,N/A,,Clear,290,2013-03-17 06:54:00
3:54 AM,24.1,10.9,57,29.91,10.0,WNW,8.1,-,N/A,,Clear,290,2013-03-17 07:54:00
4:54 AM,24.1,12.9,62,29.92,10.0,WNW,10.4,-,N/A,,Clear,290,2013-03-17 08:54:00
5:54 AM,21.9,12.9,68,29.93,10.0,WNW,9.2,-,N/A,,Clear,290,2013-03-17 09:54:00
6:54 AM,21.0,12.9,71,29.96,10.0,WNW,10.4,-,N/A,,Clear,290,2013-03-17 10:54:00
7:54 AM,21.9,14.0,72,30.01,10.0,West,9.2,-,N/A,,Clear,280,2013-03-17 11:54:00
8:18 AM,23.0,12.9,65,29.98,10.0,WNW,15.0,-,N/A,,Mostly Cloudy,300,2013-03-17 12:18:00
8:54 AM,23.0,12.9,65,30.02,10.0,NW,15.0,-,N/A,,Scattered Clouds,320,2013-03-17 12:54:00
9:54 AM,26.1,10.0,51,30.03,10.0,WNW,13.8,-,N/A,,Clear,300,2013-03-17 13:54:00
10:54 AM,28.0,9.0,45,30.03,10.0,WNW,19.6,31.1,N/A,,Clear,300,2013-03-17 14:54:00
11:54 AM,30.0,9.0,41,30.04,10.0,NW,21.9,29.9,N/A,,Clear,310,2013-03-17 15:54:00
12:54 PM,32.0,5.0,32,30.04,10.0,NW,17.3,24.2,N/A,,Clear,320,2013-03-17 16:54:00
1:54 PM,33.1,3.9,29,30.04,10.0,WNW,19.6,26.5,N/A,,Clear,300,2013-03-17 17:54:00
2:54 PM,33.1,1.0,26,30.04,10.0,NNW,17.3,24.2,N/A,,Clear,330,2013-03-17 18:54:00
3:54 PM,32.0,-0.9,24,30.08,10.0,NW,12.7,20.7,N/A,,Clear,310,2013-03-17 19:54:00
4:54 PM,32.0,1.9,28,30.09,10.0,NW,12.7,-,N/A,,Clear,310,2013-03-17 20:54:00
5:54 PM,30.9,1.0,28,30.12,10.0,NW,18.4,24.2,N/A,,Clear,310,2013-03-17 21:54:00
6:54 PM,28.9,1.9,32,30.15,10.0,NNW,13.8,20.7,N/A,,Clear,330,2013-03-17 22:54:00
7:54 PM,28.0,1.9,33,30.19,10.0,NW,6.9,-,N/A,,Clear,310,2013-03-17 23:54:00
8:54 PM,27.0,1.9,34,30.22,10.0,NNW,5.8,-,N/A,,Clear,330,2013-03-18 00:54:00
9:54 PM,27.0,1.0,33,30.25,10.0,NNW,5.8,-,N/A,,Clear,340,2013-03-18 01:54:00
10:54 PM,24.1,3.0,40,30.29,10.0,North,6.9,-,N/A,,Clear,350,2013-03-18 02:54:00
11:54 PM,23.0,1.0,39,30.30,10.0,North,6.9,-,N/A,,Clear,360,2013-03-18 03:54:00